Location: Unspecified
(41.5000°N, 0.0000°E)
Time: 14:21:12
(UTC+00:00)

deb Explorer IX - Pass Details

Date: 26 June 2019
Orbit: 539 x 1111 km, 38.8° (Epoch: 18 August)

Event Time Altitude Azimuth Distance (km) Brightness Sun altitude
Rises 18:57:14 0° 271° (W) 3,923 ? 5.8°
Reaches altitude 10° 19:02:41 10° 239° (WSW) 2,900 ? 4.9°
Maximum altitude 19:04:25 11° 225° (SW) 2,796 ? 4.6°
Drops below altitude 10° 19:06:08 10° 210° (SSW) 2,833 ? 4.3°
Sets 19:11:14 0° 177° (S) 3,646 ? 3.5°
